{"data":{"norad_id":56455,"intl_designator":"2023-064H","name":"STARLINK-5987","alt_names":[],"object_type":"PAYLOAD","status":"ACTIVE","operator":null,"country":"US","launch_date":"2023-05-10","launch_site_code":"AFWTR","launch_vehicle":null,"mission":null,"orbit_class":"UNKNOWN","rcs_meters":null,"size_class":null,"mass_kg":null,"dimensions":null,"purposes":["comms"],"wikipedia_slug":null,"has_3d_model":false,"image_url":null,"decayed_at":null,"tle_current":{"epoch":"2026-09-20T12:58:41.529216Z","epoch_age_seconds":108474,"freshness":"FRESH","line1":"1 56455U 23064H   26263.54075844  .00000022  00000+0  96241-5 0  9996","line2":"2 56455  70.0009  13.1345 0003061 268.3796  91.7012 14.98331613184430","mean_motion":14.98331613,"eccentricity":0.0003061,"inclination_deg":70.0009,"raan_deg":13.1345,"arg_perigee_deg":268.3796,"mean_anomaly_deg":91.7012,"bstar":9.6241e-6,"rev_number":18443,"period_min":96.106895663557,"perigee_km":569.92345036238,"apogee_km":574.17835539652,"semimajor_km":6950.1879028794,"source":"CELESTRAK","updated_at":"2026-09-21T09:00:33.442299Z"}}}